STARLINK-31461, 59370

Orbit data source: Space-Track

STARLINK-31461, 59370 is a payload satellite owned by SpaceX/Seattle (US) in LEO that was launched on Sun, 31 Mar 2024 UTC via an FALCON 9 launch vehicle from the Air Force Eastern Test Range (AFETR). Payload-class satellites include a variety of spacecraft equipped with specific instruments for various scientific and technological missions. These include communications satellites like Starlink; space stations such as the ISS; scientific satellites like the Hubble; Earth observation satellites from companies like Planet Labs, Umbra, and HawkEye 360; GPS; miniature CubeSats for education and research; and military/defense satellites.

Loading next visibility...
Identifier
59370, 2024-060Y
Orbit
LEO
Country
Flag of USUS
Related business
Manufacturer
SpaceX/Seattle
Mission
Operational Commercial Communications
Bus & Motor
STARLINK V2M, Unknown motor
Mass
730 kg wet, ~700 kg dry
Launch date (UTC)
2024-03-31 (2 years ago)
Launch vehicle
FALCON 9
Launch site
Air Force Eastern Test Range (AFETR)
Object type
Payload
Rocket body
Debris
Shape & HBR
Box + 2 Pan, 17.7 m
Radar Cross Section
33.884 m², Large (>1 m²)

Expand to show TLE details & history
Last TLE update: 2 days ago

TLE from 2 days ago
0 STARLINK-31461
1 59370U 24060Y   26171.31735242  .00000804  00000-0  38752-4 0  9991
2 59370  43.0020  29.4358 0001031 294.8340  65.2405 15.27577762125820
Epoch: 2026-06-20T07:36Z
TLE epoch observation values (Epoch: 2026-06-20T07:36:59.249Z)
Latitude
0.00004°
Longitude
6.65526°
Altitude
482.535 km
Speed
7.626 km/s
True Right ascension
01h 57m 44s
True Declination
0° 00' 00"
Sunlit
Object was in daylight at epoch
Visualization orbit readout
Latitude
Unknown
Longitude
Unknown
Altitude
Unknown
Speed
Unknown
Apparent Right ascension
Unknown
Apparent Declination
Unknown
Sunlit
N/A
Visualization observer readout
Local Sidereal Time
21:41:35
Azimuth
Unknown
Elevation
Unknown
Doppler factor
Unknown
Orbital elements
Apogee altitude
485.708 km
Perigee altitude
484.293 km
Semi-major axis
6,863.138 km
Eccentricity
0.0001
Inclination
43.002°
RAAN
29.4358°
Arg. of periapsis
294.834°
True anomaly
65.25123°
Mean anomaly
65.2405°
Eccentric anomaly
65.24586°
Mean motion
3.81732 °/min
Orbital period
94.31 mins
BSTAR
0.000038752
Loading maneuver chart data...
Computing Atmospheric mass density...
Loading historical data...
Loading historical data...
Loading historical data...
Loading historical data...
Loading historical data...
Loading historical data...
Loading historical data...

Documentation

Showing up to 5 results
|